Current Weather Conditions: station 62154

sailwx.info

Wind from 210 at 21 knots

Wave height 2.1 meters (6 feet), 5 second period

Air temperature 7.0° C
Dewpoint 4.5° C

Last reported at 2020-Jan-26 03:00 UTC.
Time now 2020-Jan-26 03:51 UTC

Location: N 56°24' E 002°12'.
View on Google Maps.

See reports from other nearby stations

  
Tides and Currents Weather Stations Pressure Air Temp Water Temp Dewpoint Dewpoint Depression Visibility Wind Speed Wind Dir Waves Ship Positions
date/time (UTC)wind fromknots sea level pressurealtimeterstation pressurevisibilityair tempwater tempwave heightnotes
2020-Jan-26 03:00 210 21 7.0 2.1
2020-Jan-26 02:00 220 19 7.0 2.3
2020-Jan-26 01:00 230 20 7.0 2.3
2020-Jan-26 00:00 230 19 7.2 2.0
2020-Jan-25 23:00 230 19 6.9 2.1
2020-Jan-25 22:00 230 20 7.0 1.9
2020-Jan-25 21:00 220 20 7.2 1.8
2020-Jan-25 20:00 220 18 7.5 1.8
2020-Jan-25 19:00 230 18 7.6 1.9
2020-Jan-25 18:00 240 18 8.5 2.1
2020-Jan-25 17:00 230 19 8.2 2.0
2020-Jan-25 16:00 230 15 7.9 2.2
2020-Jan-25 15:00 230 18 8.0 1.8
2020-Jan-25 14:00 230 19 7.9 1.9
2020-Jan-25 13:00 230 20 7.1 1.8
2020-Jan-25 12:00 230 19 7.0 1.6
2020-Jan-25 11:00 220 20 6.9 1.5
2020-Jan-25 10:00 220 19 7.1 1.4
2020-Jan-25 09:00 220 19 7.2 1.4
2020-Jan-25 08:00 220 15 7.6 1.4
2020-Jan-25 07:00 230 14 7.7 1.5
2020-Jan-25 06:00 230 13 7.3 1.4
2020-Jan-25 05:00 220 13 7.5 1.4
2020-Jan-25 04:00 230 9 7.5 1.4
2020-Jan-25 03:00 230 9 7.3 1.4
2020-Jan-25 02:00 230 8 6.7 1.4
2020-Jan-25 01:00 230 7 6.6 1.5
2020-Jan-25 00:00 220 6 6.4 1.5
2020-Jan-24 23:00 220 5 6.2 1.5
2020-Jan-24 22:00 220 6 6.3 1.4
2020-Jan-24 21:00 210 5 6.2 1.5
2020-Jan-24 20:00 260 2 6.0 1.4
2020-Jan-24 19:00 300 2 6.6 1.6
2020-Jan-24 18:00 320 4 7.7 1.6
2020-Jan-24 17:00 320 4 8.0 1.5
2020-Jan-24 16:00 340 4 7.7 1.5
2020-Jan-24 15:00 340 7 7.3 1.4
2020-Jan-24 14:00 310 4 7.4 1.4
2020-Jan-24 13:00 340 5 7.9 1.4
2020-Jan-24 12:00 350 6 7.6 1.5
2020-Jan-24 11:00 310 6 7.4 1.5
2020-Jan-24 10:00 300 6 7.4 1.5
2020-Jan-24 09:00 300 8 7.8 1.6
2020-Jan-24 08:00 280 12 7.9 1.5
2020-Jan-24 07:00 270 13 7.6 1.6
2020-Jan-24 06:00 270 13 7.6 1.5
2020-Jan-24 05:00 270 14 7.5 1.5
2020-Jan-24 04:00 270 17 7.4 1.6
2020-Jan-24 03:00 270 17 7.4 1.6